Aeroporto :







RITROVATECI SU...

 
LOGIN :

Iscrizione | Disclaimer

   EN    FR    IT 

 









Sommario :    VFR   VFR Marginale   IFR   IFR Intensivo   IFR Molto Intensivo
Visibilità : 
Base nubi : 
>= 8 km
>= 3000ft
5 / 8 km
1000 / 3000 ft
1500m / 5 km
500 / 1000 ft
800 / 1500m
200 / 500 ft
< 800m
< 200 ft
Simboli :   Temporali  Nebbia  Neve Forte  Precipitazioni Forti  Vento > 20 kt






- Altitudine del aeroporto : 577 ft


KVSF - Hartness State (Springfield)

ULTIMO METAR :
  • 121825Z AUTO 30008KT 10SM BKN023 M04/M09 A2984 RMK AO2 T10441089

METARs OBSOLETI :
  • 121754Z AUTO 29008G18KT 10SM FEW024 BKN110 M04/M09 A2984 RMK AO2 PK WND 27027/1710 SLP113 60002 I6001 T10441089 10006 21044 53013
  • 121654Z AUTO 30011G20KT 10SM FEW027 BKN100 OVC120 M04/M08 A2982 RMK AO2 SLP105 T10441083
  • 121554Z AUTO 30005KT 10SM FEW026 OVC095 M04/M08 A2981 RMK AO2 SLP102 T10391078

TAF N/A



MetMap, La meteo Aeronautica in un colpo d'occhio ! - Copyright ORBIFLY Dicembre 2007 - Disclaimer

ORBIFLY MET'MAP TEAM :

Programmazione e sviluppo : Alexandra Zaïnal
Concezione e sviluppo : Baudouin d'Aumeries
Co-Programmazione e sviluppo : Marc-Olivier Méhu
Supporto tecnico e logistico : Manuel Goepfert
Aiuto per la traduzione : Arnaldo La Scala

Contatto : metmap@orbifly.com




FONTI E CREDITI :

   NOAA